Find Starlink 30279

NORAD ID: 57885 Int'l Des: 2023-144 Owner: SPXS Country: US Constellation: starlink operational
LEOCIRCULAR

現在のビュー

3D地球を読み込み中...

About Starlink 30279

Starlink 30279 (NORAD 57885) is a starlink constellation satellite (v2 mini) launched Sep 16, 2023 by SPXS of US. It operates in LEO, CIRCULAR orbit with a mass of 730.00 kg.

Starlink 30279について

説明を読み込み中...

次回通過

Passes for default location (London). Set your location on the main map for personalized predictions.

高度履歴

Loading altitude history...

軌道要素

1 57885U 23144X 26170.77297772 -.00000300 00000-0 -13719-5 0 9992
2 57885 43.0039 68.3563 0001260 277.5402 82.5306 15.27578536153193
Epoch: Jun 19, 2026 • Age: 13 hours

現在のステータス

高度 483.8 km
速度 7.62 km/s
衛星直下点 -7.47°S, 43°E
打ち上げ日 Sep 16, 2023
運用期間 2.7 years
タイプ internet

技術仕様

分類 Payload
質量 730.00 kg
乾燥質量 700.00 kg
総質量 730.00 kg
長さ 0.30 m
直径 4.10 m
スパン 29.00 m
形状 Box + pan
製造者 SPXS
バスタイプ Starlink V2M
フェーズステータス In Orbit
所有者/国 SPXS/US

Most Searched